This demonstration page uses our WeatherBlox Daily Observations layout. Learn more.

Hourly Observations for October 1, 2019

Temp ( °F °C ) Dew Point ( °F °C ) Humidity (%) Winds ( mph kmh ) Pressure ( in mb ) Visibility ( mi km ) Precip ( " mm )
12:15 am 00:15 Cloudy 64 17.8 64 17.7 99 99 NNE 9 15 29.74 1007 10 16.09344 0 0
12:35 am 00:35 Cloudy 64 17.8 64 17.6 99 99 NE 8 13 29.74 1007 10 16.09344 0 0
12:55 am 00:55 Cloudy 64 17.5 63 17.2 98 98 NNE 8 13 29.77 1008 10 16.09344 0 0
1:15 am 01:15 Cloudy 63 17.2 63 17 99 99 NNE 7 11 29.8 1009 10 16.09344 0 0
1:35 am 01:35 Cloudy 63 17 62 16.8 99 99 NNE 9 15 29.8 1009 10 16.09344 0 0
1:55 am 01:55 Cloudy 62 16.6 62 16.5 99 99 NNE 8 13 29.8 1009 10 16.09344 0 0
2:15 am 02:15 Cloudy 62 16.5 62 16.5 100 100 NNE 12 19 29.8 1009 10 16.09344 0 0
2:35 am 02:35 Cloudy 61 16.3 61 16.3 100 100 NNE 9 15 29.8 1009 10 16.09344 0 0
2:55 am 02:55 Cloudy 61 16.1 61 16.1 100 100 NE 8 13 29.8 1009 10 16.09344 0 0
3:15 am 03:15 Cloudy 61 16 61 16 100 100 NE 10 17 29.8 1009 7 11.265408 0 0
3:35 am 03:35 Cloudy 61 16 61 16 100 100 NNE 9 15 29.8 1009 7 11.265408 0 0
3:55 am 03:55 Cloudy 60 15.8 60 15.8 100 100 NNE 10 17 29.8 1009 7 11.265408 0 0
4:15 am 04:15 Cloudy with Mist and Fog 60 15.5 60 15.5 100 100 NNE 9 15 29.83 1010 2 3.218688 0 0
4:35 am 04:35 Cloudy 59 15.2 59 15.2 100 100 NNE 12 19 29.83 1010 7 11.265408 0 0
4:55 am 04:55 Cloudy 59 15 59 15 100 100 NNE 13 20 29.83 1010 10 16.09344 0 0
5:15 am 05:15 Cloudy 58 14.5 58 14.5 100 100 N 8 13 29.85 1011 7 11.265408 0 0
5:35 am 05:35 Cloudy 57 13.8 57 13.8 100 100 NNE 10 17 29.85 1011 7 11.265408 0 0
5:55 am 05:55 Cloudy 56 13.6 56 13.6 100 100 NE 17 28 29.85 1011 7 11.265408 0 0
6:15 am 06:15 Cloudy 56 13.5 56 13.5 100 100 NNE 15 24 29.85 1011 10 16.09344 0 0
6:35 am 06:35 Cloudy with Mist and Fog 55 13 55 13 100 100 NE 18 30 29.83 1010 2.5 4.02336 0 0
6:55 am 06:55 Cloudy with Mist and Fog 55 12.6 55 12.6 100 100 NNE 14 22 29.88 1012 5 8.04672 0 0
7:15 am 07:15 Cloudy 55 12.5 55 12.5 100 100 NE 15 24 29.88 1012 10 16.09344 0 0
7:35 am 07:35 Cloudy 54 12.3 54 12.3 100 100 NE 15 24 29.88 1012 7 11.265408 0 0
7:55 am 07:55 Cloudy 54 12.3 54 12.3 100 100 NE 10 17 29.88 1012 7 11.265408 0 0
8:15 am 08:15 Cloudy with Mist and Fog 54 12.1 54 12.1 100 100 NNE 12 19 29.85 1011 2.5 4.02336 0 0
8:35 am 08:35 Cloudy with Mist and Fog 54 12 54 12 100 100 NNE 7 11 29.88 1012 1 1.609344 0 0
8:55 am 08:55 Cloudy with Mist and Fog 54 12 54 12 100 100 NNE 10 17 29.88 1012 2.5 4.02336 0 0
9:15 am 09:15 Cloudy with Mist and Fog 54 12 54 12 100 100 NNE 14 22 29.88 1012 5 8.04672 0 0
9:35 am 09:35 Cloudy with Mist and Fog 54 12 54 12 100 100 NNE 9 15 29.88 1012 1.75 2.816352 0 0
9:55 am 09:55 Cloudy with Mist and Fog 53 11.9 53 11.9 100 100 NNE 9 15 29.88 1012 1.5 2.414016 0 0
10:15 am 10:15 Cloudy with Mist and Fog 54 12 54 12 100 100 NNE 14 22 29.88 1012 2.5 4.02336 0 0
10:35 am 10:35 Cloudy with Light Drizzle 53 11.7 53 11.7 100 100 NNE 14 22 29.88 1012 2 3.218688 0 0
10:55 am 10:55 Cloudy with Rain 53 11.6 53 11.6 100 100 NNE 13 20 29.91 1013 3 4.828032 0 0
11:15 am 11:15 Cloudy with Rain 53 11.6 53 11.6 100 100 NNE 12 19 29.91 1013 4 6.437376 0.01 0.254
11:35 am 11:35 Cloudy with Light Rain 53 11.6 53 11.6 100 100 N 13 20 29.91 1013 10 16.09344 0.02 0.508
11:55 am 11:55 Cloudy with Light Rain 53 11.5 53 11.5 100 100 NNE 14 22 29.91 1013 4 6.437376 0.06 1.524
12:15 pm 12:15 Cloudy with Light Rain 53 11.5 53 11.5 100 100 NNE 13 20 29.91 1013 4 6.437376 0.08 2.032
12:35 pm 12:35 Cloudy with Drizzle 53 11.5 53 11.5 100 100 NNE 13 20 29.91 1013 10 16.09344 0.09 2.286
12:55 pm 12:55 Cloudy with Light Drizzle 53 11.4 53 11.4 100 100 N 10 17 29.91 1013 10 16.09344 0.1 2.54
1:15 pm 13:15 Cloudy 53 11.4 53 11.4 100 100 NNE 10 17 29.94 1014 10 16.09344 0 0
1:35 pm 13:35 Cloudy 52 11.3 52 11.2 99 99 N 10 17 29.91 1013 10 16.09344 0 0
1:55 pm 13:55 Cloudy 53 11.4 52 11.2 99 99 N 9 15 29.91 1013 10 16.09344 0 0
2:15 pm 14:15 Cloudy with Light Rain 52 11 52 11 100 100 N 9 15 29.91 1013 7 11.265408 0 0
2:35 pm 14:35 Cloudy 52 11.1 52 11 99 99 N 13 20 29.91 1013 10 16.09344 0.01 0.254
2:55 pm 14:55 Cloudy with Light Rain 51 10.7 51 10.7 100 100 N 12 19 29.91 1013 5 8.04672 0.01 0.254
3:15 pm 15:15 Cloudy with Light Rain 51 10.6 51 10.6 100 100 N 15 24 29.91 1013 10 16.09344 0 0
3:35 pm 15:35 Cloudy with Rain 51 10.7 51 10.7 100 100 N 14 22 29.91 1013 5 8.04672 0.02 0.508
3:55 pm 15:55 Cloudy with Rain 51 10.5 51 10.5 100 100 N 10 17 29.91 1013 10 16.09344 0.05 1.27
4:15 pm 16:15 Cloudy with Light Rain 50 10 50 10 100 100 N 13 20 29.91 1013 10 16.09344 0.01 0.254
4:35 pm 16:35 Cloudy with Light Rain 49 9.6 49 9.6 100 100 N 13 20 29.88 1012 10 16.09344 0.02 0.508
4:55 pm 16:55 Cloudy with Rain 50 9.9 49 9.7 99 99 N 14 22 29.91 1013 10 16.09344 0.03 0.762
5:15 pm 17:15 Cloudy with Light Rain 50 10 50 9.8 99 99 N 12 19 29.91 1013 10 16.09344 0 0
5:35 pm 17:35 Cloudy 51 10.3 50 10 98 98 N 13 20 29.94 1014 10 16.09344 0 0
5:55 pm 17:55 Cloudy 50 10.1 50 9.9 99 99 NNE 14 22 29.94 1014 10 16.09344 0 0
6:15 pm 18:15 Cloudy with Light Drizzle 50 10 49 9.7 98 98 N 14 22 29.91 1013 10 16.09344 0 0
6:35 pm 18:35 Cloudy with Light Drizzle 50 9.9 49 9.7 99 99 NNE 13 20 29.91 1013 10 16.09344 0 0
6:55 pm 18:55 Cloudy 49 9.6 49 9.5 99 99 NNE 16 26 29.91 1013 10 16.09344 0 0
7:15 pm 19:15 Cloudy 49 9.7 49 9.5 99 99 N 15 24 29.91 1013 10 16.09344 0 0
7:35 pm 19:35 Cloudy 49 9.3 49 9.3 100 100 N 15 24 29.94 1014 7 11.265408 0 0
7:55 pm 19:55 Cloudy 49 9.5 49 9.3 99 99 N 12 19 29.94 1014 10 16.09344 0 0
8:15 pm 20:15 Cloudy 49 9.5 48 9.1 97 97 N 12 19 29.97 1015 10 16.09344 0 0
8:35 pm 20:35 Cloudy 49 9.5 48 9 97 97 NNE 10 17 29.97 1015 10 16.09344 0 0
8:55 pm 20:55 Cloudy 49 9.5 49 9.2 98 98 N 8 13 29.97 1015 7 11.265408 0 0
9:15 pm 21:15 Cloudy 49 9.3 49 9.2 99 99 N 10 17 29.97 1015 7 11.265408 0 0
9:35 pm 21:35 Cloudy 49 9.2 48 9 99 99 N 9 15 30 1016 10 16.09344 0 0
9:55 pm 21:55 Cloudy 49 9.2 48 9 99 99 N 13 20 30 1016 10 16.09344 0 0
10:15 pm 22:15 Cloudy 48 9 48 9 100 100 N 12 19 30.03 1017 7 11.265408 0 0
10:35 pm 22:35 Cloudy 48 9.1 48 9 99 99 N 13 20 30.03 1017 10 16.09344 0 0
10:55 pm 22:55 Cloudy 49 9.2 48 9 99 99 N 9 15 30 1016 10 16.09344 0 0
11:15 pm 23:15 Cloudy 49 9.2 48 9 99 99 NNE 12 19 30 1016 10 16.09344 0 0
11:35 pm 23:35 Cloudy 48 9.1 48 9 99 99 N 12 19 30.03 1017 10 16.09344 0 0
11:55 pm 23:55 Cloudy 48 9.1 48 9 99 99 N 12 19 30.03 1017 10 16.09344 0 0

Powered by AerisWeather